Tracking 20242 objects as of 24-Jan-2020
HD Live streaming from Space Station
objects crossing your sky now

COSMOS 2251 DEB

Track COSMOS 2251 DEB now!
10-day predictions


NORAD ID: 34057
Int'l Code: 1993-036JU
Perigee: 696.4 km
Apogee: 737.2 km
Inclination: 74.0 °
Period: 99.0 minutes
Semi major axis: 7087 km
RCS: 0.092 m2 (small)
Launch date: June 16, 1993
Source: Commonwealth of Independent States (former USSR) (CIS)
Launch site: PLESETSK MISSILE AND SPACE COMPLEX (PKMTR)

Note: This is SATELLITE DEBRIS
aabbcc
Your satellite tracking list
Your tracking list is empty




NASA's NSSDC Master Catalog

Two Line Element Set (TLE):
1 34057U 93036JU  20023.36013425 +.00000746 +00000-0 +17928-3 0  9998
2 34057 074.0197 118.4527 0028761 030.5048 032.9768 14.54912215577403
Source of the keplerian elements: AFSPC